CCM26K LFMN-LFKC

Flight info

Callsign CCM26K
Flight time 0h 25m
Altitude 13000
Route SODRI
Aircraft A320/M-SDE3FGHIRWY/LB1

Departure

Time 2026-05-06 14:19
Airport Nice-Côte d'Azur Airport (LFMN)

Arrival

Time 2026-05-06 14:45
Airport Calvi Sainte Catherine Airport (LFKC)
Time Latitude Longitude Altitude Speed Heading
2026-05-06 13:59 43.66119 7.20687 21 ft 0 kts 261°
2026-05-06 14:09 43.66120 7.20701 21 ft 4 kts 259°
2026-05-06 14:09 43.66126 7.20737 22 ft 4 kts 260°
2026-05-06 14:10 43.66130 7.20766 25 ft 4 kts 240°
2026-05-06 14:10 43.66147 7.20784 23 ft 4 kts 178°
2026-05-06 14:10 43.66172 7.20780 21 ft 4 kts 171°
2026-05-06 14:10 43.66177 7.20779 23 ft 0 kts 171°
2026-05-06 14:12 43.66170 7.20780 21 ft 4 kts 171°
2026-05-06 14:12 43.66102 7.20796 22 ft 15 kts 171°
2026-05-06 14:13 43.65996 7.20819 24 ft 16 kts 171°
2026-05-06 14:13 43.65883 7.20843 21 ft 17 kts 171°
2026-05-06 14:13 43.65805 7.20876 21 ft 10 kts 133°
2026-05-06 14:13 43.65816 7.20957 21 ft 9 kts 49°
2026-05-06 14:14 43.65859 7.21017 21 ft 9 kts 44°
2026-05-06 14:14 43.65914 7.21092 21 ft 14 kts 44°
2026-05-06 14:14 43.65994 7.21201 21 ft 16 kts 44°
2026-05-06 14:14 43.66081 7.21319 21 ft 17 kts 44°
2026-05-06 14:15 43.66172 7.21447 21 ft 20 kts 45°
2026-05-06 14:15 43.66272 7.21581 21 ft 19 kts 45°
2026-05-06 14:15 43.66365 7.21710 21 ft 19 kts 45°
2026-05-06 14:15 43.66455 7.21835 21 ft 18 kts 45°
2026-05-06 14:16 43.66533 7.21941 21 ft 10 kts 45°
2026-05-06 14:16 43.66549 7.22021 21 ft 9 kts 109°
2026-05-06 14:16 43.66514 7.22081 21 ft 8 kts 135°
2026-05-06 14:16 43.66461 7.22153 22 ft 13 kts 135°
2026-05-06 14:17 43.66386 7.22256 22 ft 11 kts 130°
2026-05-06 14:17 43.66375 7.22351 23 ft 10 kts 69°
2026-05-06 14:17 43.66415 7.22421 21 ft 9 kts 46°
2026-05-06 14:17 43.66471 7.22497 21 ft 13 kts 44°
2026-05-06 14:18 43.66539 7.22590 21 ft 14 kts 43°
2026-05-06 14:18 43.66580 7.22673 21 ft 12 kts 79°
2026-05-06 14:18 43.66547 7.22768 22 ft 10 kts 140°
2026-05-06 14:18 43.66485 7.22742 22 ft 11 kts 221°
2026-05-06 14:19 43.66465 7.22715 22 ft 15 kts 225°
2026-05-06 14:19 43.65960 7.22024 23 ft 114 kts 225°
2026-05-06 14:19 43.65281 7.21089 122 ft 153 kts 224°
2026-05-06 14:19 43.64563 7.20055 912 ft 147 kts 224°
2026-05-06 14:20 43.63837 7.19062 1660 ft 148 kts 224°
2026-05-06 14:20 43.63109 7.18060 2373 ft 147 kts 226°
2026-05-06 14:20 43.62386 7.17062 3043 ft 147 kts 226°
2026-05-06 14:20 43.61636 7.16039 3500 ft 161 kts 224°
2026-05-06 14:21 43.60589 7.15262 3818 ft 189 kts 196°
2026-05-06 14:21 43.59176 7.15528 4095 ft 228 kts 160°
2026-05-06 14:21 43.57780 7.16729 4794 ft 238 kts 152°
2026-05-06 14:21 43.56374 7.17932 5655 ft 239 kts 154°
2026-05-06 14:22 43.55053 7.19352 6486 ft 244 kts 136°
2026-05-06 14:22 43.53915 7.21096 7337 ft 245 kts 135°
2026-05-06 14:22 43.52772 7.22853 8149 ft 248 kts 136°
2026-05-06 14:22 43.51630 7.24608 8944 ft 250 kts 137°
2026-05-06 14:23 43.50466 7.26395 9795 ft 251 kts 137°
2026-05-06 14:23 43.49275 7.28219 10548 ft 254 kts 137°
2026-05-06 14:23 43.48101 7.30016 11290 ft 257 kts 138°
2026-05-06 14:23 43.46738 7.31630 11981 ft 258 kts 152°
2026-05-06 14:24 43.45138 7.32875 12274 ft 279 kts 156°
2026-05-06 14:24 43.43361 7.34203 12563 ft 302 kts 156°
2026-05-06 14:24 43.41440 7.35636 12792 ft 326 kts 155°
2026-05-06 14:24 43.39368 7.37193 12860 ft 353 kts 155°
2026-05-06 14:25 43.37151 7.38871 12880 ft 370 kts 154°
2026-05-06 14:25 43.34887 7.40601 12887 ft 374 kts 154°
2026-05-06 14:25 43.32608 7.42350 12887 ft 375 kts 154°
2026-05-06 14:25 43.30330 7.44096 12887 ft 375 kts 154°
2026-05-06 14:26 43.28051 7.45837 12889 ft 375 kts 154°
2026-05-06 14:26 43.25771 7.47573 12893 ft 375 kts 154°
2026-05-06 14:26 43.23489 7.49304 12893 ft 375 kts 155°
2026-05-06 14:26 43.21201 7.51025 12893 ft 375 kts 155°
2026-05-06 14:27 43.18911 7.52745 12892 ft 375 kts 155°
2026-05-06 14:27 43.16624 7.54465 12899 ft 375 kts 155°
2026-05-06 14:27 43.14368 7.56266 12899 ft 377 kts 149°
2026-05-06 14:27 43.12386 7.58658 12899 ft 383 kts 135°
2026-05-06 14:28 43.10836 7.61644 12899 ft 388 kts 121°
2026-05-06 14:28 43.09813 7.65071 12905 ft 392 kts 108°
2026-05-06 14:28 43.09297 7.68738 12907 ft 393 kts 102°
2026-05-06 14:28 43.08845 7.72426 12913 ft 393 kts 102°
2026-05-06 14:29 43.08390 7.76113 12914 ft 393 kts 102°
2026-05-06 14:29 43.07934 7.79800 12915 ft 393 kts 102°
2026-05-06 14:29 43.07493 7.83491 12912 ft 393 kts 101°
2026-05-06 14:29 43.07075 7.87188 12914 ft 393 kts 101°
2026-05-06 14:30 43.06665 7.90886 12923 ft 393 kts 101°
2026-05-06 14:30 43.06254 7.94583 12923 ft 393 kts 101°
2026-05-06 14:30 43.05836 7.98284 12909 ft 394 kts 101°
2026-05-06 14:30 43.05412 8.01978 12909 ft 394 kts 101°
2026-05-06 14:31 43.04986 8.05680 12914 ft 394 kts 102°
2026-05-06 14:31 43.04558 8.09389 12918 ft 395 kts 102°
2026-05-06 14:31 43.04128 8.13098 12922 ft 395 kts 102°
2026-05-06 14:31 43.03696 8.16798 12924 ft 395 kts 102°
2026-05-06 14:32 43.03409 8.19250 12925 ft 395 kts 102°
2026-05-06 14:32 43.02828 8.24206 12929 ft 395 kts 102°
2026-05-06 14:32 43.02541 8.26663 12930 ft 395 kts 102°
2026-05-06 14:32 43.02107 8.30363 12930 ft 395 kts 102°
2026-05-06 14:33 43.01672 8.34063 12927 ft 394 kts 102°
2026-05-06 14:33 43.01239 8.37739 12918 ft 385 kts 102°
2026-05-06 14:33 43.00629 8.42423 12925 ft 375 kts 104°
2026-05-06 14:33 43.00295 8.44780 12768 ft 373 kts 104°
2026-05-06 14:34 42.99780 8.48282 11868 ft 380 kts 104°
2026-05-06 14:34 42.99254 8.51802 11121 ft 374 kts 104°
2026-05-06 14:34 42.98762 8.55162 10934 ft 346 kts 104°
2026-05-06 14:34 42.98317 8.58270 10755 ft 323 kts 104°
2026-05-06 14:35 42.97894 8.61235 10273 ft 314 kts 104°
2026-05-06 14:35 42.97477 8.64136 9743 ft 308 kts 104°
2026-05-06 14:35 42.97065 8.66975 9312 ft 305 kts 104°
2026-05-06 14:35 42.96660 8.69761 8787 ft 301 kts 104°
2026-05-06 14:36 42.96250 8.72594 8286 ft 301 kts 105°
2026-05-06 14:36 42.95643 8.75243 7922 ft 287 kts 123°
2026-05-06 14:36 42.94511 8.77281 7766 ft 257 kts 143°
2026-05-06 14:36 42.93088 8.78582 7361 ft 240 kts 162°
2026-05-06 14:37 42.91513 8.79154 6837 ft 231 kts 180°
2026-05-06 14:37 42.89929 8.79183 6300 ft 227 kts 185°
2026-05-06 14:37 42.88357 8.79184 5764 ft 224 kts 184°
2026-05-06 14:37 42.86810 8.79186 5251 ft 221 kts 183°
2026-05-06 14:38 42.85271 8.79187 4732 ft 221 kts 183°
2026-05-06 14:38 42.83786 8.79191 4564 ft 204 kts 184°
2026-05-06 14:38 42.82410 8.79195 4355 ft 194 kts 184°
2026-05-06 14:38 42.81084 8.79196 4212 ft 187 kts 184°
2026-05-06 14:39 42.79792 8.79197 3993 ft 185 kts 185°
2026-05-06 14:39 42.78510 8.79196 3696 ft 183 kts 185°
2026-05-06 14:39 42.77232 8.79195 3288 ft 184 kts 185°
2026-05-06 14:39 42.75944 8.79196 3033 ft 184 kts 185°
2026-05-06 14:40 42.74685 8.79204 3032 ft 178 kts 185°
2026-05-06 14:40 42.73441 8.79211 3005 ft 179 kts 183°
2026-05-06 14:40 42.72194 8.79216 2999 ft 178 kts 185°
2026-05-06 14:40 42.70955 8.79221 2991 ft 179 kts 184°
2026-05-06 14:41 42.69707 8.79226 3001 ft 179 kts 183°
2026-05-06 14:41 42.68503 8.79232 2896 ft 169 kts 183°
2026-05-06 14:41 42.67335 8.79236 2641 ft 166 kts 184°
2026-05-06 14:41 42.66201 8.79243 2441 ft 160 kts 186°
2026-05-06 14:42 42.65096 8.79258 2215 ft 158 kts 186°
2026-05-06 14:42 42.64004 8.79277 1986 ft 157 kts 182°
2026-05-06 14:42 42.62929 8.79264 1777 ft 148 kts 188°
2026-05-06 14:42 42.61928 8.79250 1606 ft 142 kts 186°
2026-05-06 14:43 42.60964 8.79246 1403 ft 136 kts 187°
2026-05-06 14:43 42.60026 8.79270 1213 ft 135 kts 188°
2026-05-06 14:43 42.59069 8.79233 1027 ft 140 kts 187°
2026-05-06 14:43 42.58113 8.79279 813 ft 136 kts 188°
2026-05-06 14:44 42.57167 8.79281 687 ft 136 kts 189°
2026-05-06 14:44 42.56216 8.79274 548 ft 137 kts 184°
2026-05-06 14:44 42.55286 8.79287 376 ft 131 kts 186°
2026-05-06 14:45 42.53516 8.79294 115 ft 108 kts 180°
2026-05-06 14:45 42.52937 8.79298 159 ft 58 kts 180°
2026-05-06 14:45 42.52646 8.79300 181 ft 32 kts 180°
2026-05-06 14:45 42.52501 8.79301 195 ft 16 kts 180°
2026-05-06 14:46 42.52434 8.79271 196 ft 9 kts 251°
2026-05-06 14:46 42.52433 8.79183 198 ft 9 kts 272°
2026-05-06 14:46 42.52447 8.79154 197 ft 1 kts 339°
2026-05-06 14:46 42.52483 8.79162 197 ft 8 kts
2026-05-06 14:47 42.52537 8.79148 196 ft 8 kts 321°
2026-05-06 14:47 42.52560 8.79099 195 ft 4 kts 300°
2026-05-06 14:47 42.52566 8.79083 199 ft 0 kts 300°